Estació municipal de Vilalleons (Osona, E.N.Guilleries-Savassona)

Consulta les dades en temps real de l'estació municipal de Vilalleons





Hora UTC 09:40
Temperatura 12.4 ºC
Humitat 80.0 %
Pressió 1014.0 hPa
Pluja 0.2 mm
Velocitat vent 4.8 km/h
Direcció vent N

Webcam

Dades diàries 2026-05-06



Hora UTC (hivern +1h; estiu +2h)
Temperatura (ºC) Humitat (%) Pressió (hPa) Velocitat vent (km/h) Precipitació (mm)
Hora UTC Aire Humitat Pressió Vel. Dir. Vel. Max Dir. Intent. màx 5 min.
00:05 6.1 95.0 1011.3 0.0 N 0.0 0.0
00:10 6.2 95.0 1011.2 0.0 N 0.0 0.0
00:15 6.2 95.0 1011.1 0.0 N 0.0 0.0
00:20 6.2 95.0 1011.1 0.0 N 0.0 0.0
00:25 6.2 95.0 1011.1 0.0 N 0.0 0.0
00:30 6.2 95.0 1011.1 0.0 N 0.0 0.0
00:35 6.0 95.0 1011.0 0.0 N 0.0 0.0
00:40 5.9 95.0 1011.1 0.0 N 0.0 0.0
00:45 6.0 95.0 1011.1 0.0 N 0.0 0.0
00:50 5.9 95.0 1011.0 0.0 N 0.0 0.0
00:55 5.9 95.0 1011.0 3.2 N 4.8 0.0
01:00 5.9 95.0 1010.9 0.0 N 4.8 0.0
01:05 5.9 95.0 1011.1 0.0 N 4.8 0.0
01:10 5.8 95.0 1011.0 0.0 N 3.2 0.0
01:15 5.7 95.0 1011.0 1.6 N 3.2 0.0
01:20 5.7 95.0 1011.0 4.8 N 4.8 0.0
01:25 5.7 95.0 1010.9 0.0 N 4.8 0.0
01:30 5.7 95.0 1010.9 4.8 N 4.8 0.0
01:35 5.4 95.0 1010.9 1.6 N 4.8 0.0
01:40 5.4 95.0 1010.9 1.6 N 4.8 0.0
01:45 5.4 96.0 1010.9 1.6 N 3.2 0.0
01:50 5.4 96.0 1010.8 3.2 N 4.8 0.0
01:55 5.4 95.0 1010.8 1.6 N 4.8 0.0
02:00 5.4 96.0 1010.8 0.0 N 3.2 0.0
02:05 5.6 96.0 1010.8 3.2 N 3.2 0.0
02:10 5.5 96.0 1010.8 1.6 N 3.2 0.0
02:15 5.4 96.0 1010.8 0.0 N 3.2 0.0
02:20 5.4 96.0 1010.8 0.0 N 3.2 0.0
02:25 5.4 96.0 1010.9 1.6 N 3.2 0.0
02:30 5.4 96.0 1011.1 1.6 N 3.2 0.0
02:35 5.4 96.0 1011.1 0.0 N 1.6 0.0
02:40 5.3 96.0 1011.0 3.2 N 3.2 0.0
02:45 5.3 96.0 1011.1 0.0 N 3.2 0.0
02:50 5.3 96.0 1011.1 1.6 N 1.6 0.0
02:55 5.2 96.0 1011.0 4.8 N 4.8 0.0
03:00 5.0 96.0 1011.0 1.6 N 4.8 0.0
03:05 5.0 96.0 1011.0 0.0 N 4.8 0.0
03:10 5.1 96.0 1011.0 0.0 SE 3.2 0.0
03:15 5.0 96.0 1010.9 0.0 SE 3.2 0.0
03:20 5.0 96.0 1010.9 0.0 SE 3.2 0.0
03:25 5.0 96.0 1010.9 0.0 SE 1.6 0.0
03:30 5.1 97.0 1010.9 0.0 SE 4.8 0.0
03:35 5.1 97.0 1010.9 0.0 SE 4.8 0.0
03:40 5.1 97.0 1010.9 1.6 SE 3.2 0.0
03:45 5.1 97.0 1011.0 0.0 SE 3.2 0.0
03:50 5.1 97.0 1010.9 0.0 SE 3.2 0.0
03:55 5.1 97.0 1010.9 3.2 N 3.2 0.0
04:00 5.0 96.0 1011.0 0.0 SE 3.2 0.0
04:05 4.9 96.0 1011.0 0.0 SE 3.2 0.0
04:10 4.8 96.0 1011.0 0.0 N 3.2 0.0
04:15 4.8 97.0 1010.9 3.2 N 3.2 0.0
04:20 4.6 96.0 1011.0 3.2 N 4.8 0.0
04:25 4.7 97.0 1011.1 1.6 N 4.8 0.0
04:30 4.6 96.0 1011.0 1.6 N 3.2 0.0
04:35 4.4 96.0 1011.2 0.0 N 3.2 0.0
04:40 4.5 97.0 1011.2 0.0 SE 3.2 0.0
04:45 4.5 97.0 1011.2 1.6 SE 3.2 0.0
04:50 4.5 97.0 1011.1 0.0 N 3.2 0.0
04:55 4.6 97.0 1011.2 3.2 N 3.2 0.0
05:00 4.5 97.0 1011.2 1.6 N 4.8 0.0
05:05 4.5 97.0 1011.2 0.0 N 4.8 0.0
05:10 4.5 97.0 1011.4 0.0 N 1.6 0.0
05:15 4.6 97.0 1011.4 0.0 N 0.0 0.0
05:20 4.6 97.0 1011.5 0.0 N 0.0 0.0
05:25 4.8 97.0 1011.5 0.0 N 0.0 0.0
05:30 5.1 97.0 1011.6 0.0 N 3.2 0.0
05:35 5.3 97.0 1011.8 1.6 N 4.8 0.0
05:40 5.6 97.0 1011.8 1.6 SW 6.4 0.0
05:45 5.8 98.0 1012.0 3.2 SW 6.4 0.0
05:50 6.0 98.0 1012.1 0.0 SW 6.4 0.0
05:55 6.3 98.0 1012.1 1.6 SW 3.2 0.0
06:00 6.4 98.0 1012.2 0.0 SW 3.2 0.2
06:05 6.4 98.0 1012.1 0.0 SW 3.2 0.0
06:10 6.7 98.0 1012.2 1.6 SW 4.8 0.0
06:15 7.2 98.0 1012.0 3.2 SW 4.8 0.0
06:20 7.4 98.0 1012.2 1.6 N 3.2 0.0
06:25 7.7 98.0 1012.4 1.6 N 3.2 0.0
06:30 7.6 98.0 1012.2 0.0 WSW 3.2 0.0
06:35 7.6 98.0 1012.4 0.0 W 4.8 0.0
06:40 7.6 98.0 1012.2 0.0 W 4.8 0.0
06:45 7.7 98.0 1012.3 0.0 WNW 0.0 0.0
06:50 7.7 98.0 1012.2 0.0 NW 0.0 0.0
06:55 7.9 98.0 1012.2 0.0 SW 6.4 0.0
07:00 7.9 98.0 1012.4 1.6 WSW 6.4 0.0
07:05 8.0 98.0 1012.3 1.6 WSW 6.4 0.0
07:10 8.1 98.0 1012.3 1.6 WSW 6.4 0.0
07:15 8.3 98.0 1012.2 1.6 NW 6.4 0.0
07:20 8.3 98.0 1012.2 0.0 NW 6.4 0.0
07:25 8.3 98.0 1012.3 6.4 N 6.4 0.0
07:30 8.7 98.0 1012.4 3.2 N 8.0 0.0
07:35 8.7 98.0 1012.5 3.2 N 6.4 0.0
07:40 8.7 98.0 1012.7 1.6 N 6.4 0.0
07:45 8.7 97.0 1012.6 3.2 N 4.8 0.0
07:50 8.6 97.0 1012.6 1.6 NNE 6.4 0.0
07:55 8.5 97.0 1012.4 1.6 NNE 6.4 0.0
08:00 8.7 97.0 1012.6 0.0 W 3.2 0.0
08:05 8.9 97.0 1012.7 0.0 WNW 1.6 0.0
08:10 8.9 97.0 1012.7 4.8 N 8.0 0.0
08:15 8.9 96.0 1012.7 1.6 NNW 8.0 0.0
08:20 9.0 96.0 1012.8 3.2 NNE 6.4 0.0
08:25 9.3 96.0 1012.8 3.2 NE 6.4 0.0
08:30 9.4 95.0 1013.0 4.8 NNE 8.0 0.0
08:35 9.6 94.0 1013.1 3.2 NE 8.0 0.0
08:40 9.8 93.0 1013.0 0.0 NNE 6.4 0.0
08:45 9.9 92.0 1013.3 0.0 WSW 6.4 0.0
08:50 10.3 92.0 1013.4 3.2 NNE 8.0 0.0
08:55 10.4 90.0 1013.3 3.2 NNW 8.0 0.0
09:00 10.5 89.0 1013.4 0.0 NW 6.4 0.0
09:05 10.8 87.0 1013.5 1.6 NW 8.0 0.0
09:10 11.2 87.0 1013.6 0.0 N 8.0 0.0
09:15 11.7 88.0 1013.6 6.4 WSW 6.4 0.0
09:20 11.9 86.0 1013.6 3.2 SW 6.4 0.0
09:25 12.1 84.0 1013.9 6.4 SW 9.7 0.0
09:30 12.3 82.0 1013.9 8.0 NNW 9.7 0.0
09:35 12.4 82.0 1014.0 1.6 NNW 9.7 0.0
09:40 12.4 80.0 1014.0 4.8 N 8.0 0.0
Màxima 12.4 98.0 1014.0 8.0 NNW 9.7 0.2
Mínima 4.4 80.0 1010.8
Total 0.2